| time (UTC) | temp F | wind direction | speed knots | gust knots | rain 1hr in | rain 24hr in | rain mn in | humidity % | barometer mb |
| 20260510220405 | 68 | 359 | 0.9 | 6.1 | 0.00 | 0.19 | 0.00 | 65 | 1013.8 |
| 20260510215905 | 68 | 186 | 1.7 | 6.1 | 0.00 | 0.19 | 0.00 | 65 | 1013.6 |
| 20260510214905 | 69 | 345 | 0.9 | 4.3 | 0.00 | 0.19 | 0.00 | 66 | 1013.5 |
| 20260510214405 | 69 | 231 | 1.7 | 4.3 | 0.00 | 0.19 | 0.00 | 64 | 1013.4 |
| 20260510213404 | 69 | 350 | 1.7 | 4.3 | 0.00 | 0.25 | 0.00 | 62 | 1013.2 |
| 20260510212904 | 70 | 315 | 0.9 | 6.1 | 0.00 | 0.25 | 0.00 | 62 | 1013.3 |
| 20260510212405 | 70 | 281 | 1.7 | 5.2 | 0.00 | 0.25 | 0.00 | 61 | 1013.3 |
| 20260510211907 | 70 | 318 | 1.7 | 5.2 | 0.00 | 0.25 | 0.00 | 60 | 1013.3 |
| 20260510211405 | 71 | 296 | 2.6 | 7.0 | 0.00 | 0.25 | 0.00 | 60 | 1013.2 |
| 20260510210904 | 71 | 22 | 1.7 | 5.2 | 0.00 | 0.25 | 0.00 | 60 | 1013.1 |
| 20260510210405 | 71 | 275 | 2.6 | 4.3 | 0.00 | 0.34 | 0.00 | 59 | 1012.9 |
| 20260510205904 | 71 | 342 | 1.7 | 5.2 | 0.00 | 0.39 | 0.00 | 59 | 1012.8 |
| 20260510205405 | 72 | 340 | 2.6 | 6.1 | 0.00 | 0.39 | 0.00 | 59 | 1012.8 |
| 20260510204906 | 72 | 306 | 2.6 | 7.8 | 0.00 | 0.40 | 0.00 | 59 | 1012.7 |
| 20260510204405 | 72 | 20 | 1.7 | 7.8 | 0.00 | 0.41 | 0.00 | 59 | 1012.8 |
| 20260510203904 | 73 | 333 | 2.6 | 7.0 | 0.00 | 0.41 | 0.00 | 59 | 1012.7 |
| 20260510203406 | 73 | 0 | 0.9 | 5.2 | 0.00 | 0.41 | 0.00 | 57 | 1012.7 |
| 20260510202904 | 73 | 36 | 1.7 | 7.0 | 0.00 | 0.41 | 0.00 | 56 | 1012.7 |
| 20260510202405 | 74 | 358 | 1.7 | 4.3 | 0.00 | 0.42 | 0.00 | 56 | 1012.7 |
| 20260510201906 | 74 | 224 | 1.7 | 4.3 | 0.00 | 0.42 | 0.00 | 56 | 1012.7 |
| 20260510200904 | 74 | 242 | 1.7 | 4.3 | 0.00 | 0.42 | 0.00 | 55 | 1012.7 |
| 20260510200405 | 74 | 278 | 1.7 | 6.1 | 0.00 | 0.42 | 0.00 | 55 | 1012.7 |
| 20260510195905 | 74 | 277 | 2.6 | 6.1 | 0.00 | 0.42 | 0.00 | 55 | 1012.7 |
| 20260510194904 | 75 | 316 | 1.7 | 5.2 | 0.00 | 0.42 | 0.00 | 54 | 1012.7 |
| 20260510192904 | 76 | 331 | 1.7 | 6.1 | 0.00 | 0.42 | 0.00 | 56 | 1012.7 |
| 20260510192405 | 76 | 323 | 1.7 | 4.3 | 0.00 | 0.42 | 0.00 | 54 | 1012.7 |
| 20260510191406 | 76 | 324 | 2.6 | 7.8 | 0.00 | 0.42 | 0.00 | 55 | 1012.8 |
| 20260510190404 | 76 | 196 | 2.6 | 6.1 | 0.00 | 0.42 | 0.00 | 54 | 1012.6 |
| 20260510185405 | 74 | 291 | 1.7 | 5.2 | 0.00 | 0.42 | 0.00 | 57 | 1012.9 |
| 20260510184904 | 74 | 332 | 2.6 | 7.8 | 0.00 | 0.42 | 0.00 | 57 | 1012.9 |
| 20260510183905 | 74 | 261 | 2.6 | 5.2 | 0.00 | 0.42 | 0.00 | 58 | 1012.9 |
| 20260510183406 | 74 | 327 | 2.6 | 6.1 | 0.00 | 0.42 | 0.00 | 58 | 1012.9 |
| 20260510182909 | 74 | 353 | 2.6 | 7.0 | 0.00 | 0.43 | 0.00 | 58 | 1013.0 |
| 20260510182406 | 74 | 273 | 2.6 | 7.0 | 0.00 | 0.43 | 0.00 | 58 | 1013.0 |
| 20260510181904 | 74 | 199 | 2.6 | 5.2 | 0.00 | 0.43 | 0.00 | 57 | 1012.9 |
| 20260510181404 | 74 | 281 | 2.6 | 6.1 | 0.00 | 0.43 | 0.00 | 57 | 1012.9 |
| 20260510180904 | 74 | 279 | 2.6 | 5.2 | 0.00 | 0.43 | 0.00 | 58 | 1012.9 |
| 20260510180405 | 74 | 216 | 2.6 | 6.1 | 0.00 | 0.43 | 0.00 | 59 | 1012.9 |
| 20260510175904 | 75 | 311 | 2.6 | 5.2 | 0.00 | 0.43 | 0.00 | 58 | 1012.9 |
| 20260510175404 | 74 | 197 | 1.7 | 5.2 | 0.00 | 0.43 | 0.00 | 58 | 1012.9 |
| 20260510174904 | 74 | 219 | 2.6 | 6.1 | 0.00 | 0.43 | 0.00 | 59 | 1012.9 |
| 20260510173904 | 74 | 325 | 2.6 | 7.0 | 0.00 | 0.43 | 0.00 | 58 | 1013.0 |
| 20260510173405 | 75 | 348 | 1.7 | 7.0 | 0.00 | 0.43 | 0.00 | 56 | 1013.0 |
| 20260510172907 | 75 | 206 | 2.6 | 6.1 | 0.00 | 0.43 | 0.00 | 56 | 1012.9 |
| 20260510172405 | 76 | 202 | 2.6 | 7.0 | 0.00 | 0.43 | 0.00 | 54 | 1013.0 |
| 20260510171905 | 76 | 222 | 1.7 | 5.2 | 0.00 | 0.43 | 0.00 | 54 | 1012.8 |
| 20260510171409 | 75 | 189 | 2.6 | 5.2 | 0.00 | 0.43 | 0.00 | 56 | 1012.8 |
| 20260510170905 | 75 | 166 | 2.6 | 4.3 | 0.00 | 0.43 | 0.00 | 57 | 1012.8 |
| 20260510170405 | 74 | 223 | 2.6 | 6.1 | 0.00 | 0.43 | 0.00 | 58 | 1012.9 |
| 20260510165904 | 74 | 217 | 1.7 | 5.2 | 0.00 | 0.43 | 0.00 | 58 | 1012.8 |
| 20260510165404 | 73 | 239 | 4.3 | 7.8 | 0.00 | 0.43 | 0.00 | 57 | 1012.8 |
| 20260510164904 | 73 | 188 | 2.6 | 7.0 | 0.00 | 0.43 | 0.00 | 58 | 1012.8 |
| 20260510164405 | 73 | 221 | 2.6 | 7.0 | 0.00 | 0.43 | 0.00 | 58 | 1012.8 |
| 20260510163904 | 73 | 314 | 2.6 | 5.2 | 0.00 | 0.43 | 0.00 | 58 | 1012.8 |
| 20260510163406 | 72 | 201 | 2.6 | 5.2 | 0.00 | 0.44 | 0.00 | 60 | 1012.9 |
| 20260510162405 | 72 | 170 | 2.6 | 6.1 | 0.00 | 0.45 | 0.00 | 58 | 1012.9 |
| 20260510161904 | 72 | 302 | 2.6 | 6.1 | 0.00 | 0.45 | 0.00 | 62 | 1012.9 |
| 20260510160904 | 71 | 249 | 2.6 | 7.0 | 0.00 | 0.45 | 0.00 | 63 | 1012.9 |
| 20260510160406 | 71 | 234 | 2.6 | 6.1 | 0.00 | 0.45 | 0.00 | 63 | 1012.9 |
| 20260510155906 | 71 | 260 | 2.6 | 5.2 | 0.00 | 0.45 | 0.00 | 64 | 1012.9 |
| 20260510155404 | 70 | 233 | 2.6 | 7.8 | 0.00 | 0.45 | 0.00 | 66 | 1012.9 |
| 20260510154404 | 69 | 286 | 1.7 | 5.2 | 0.00 | 0.45 | 0.00 | 69 | 1013.1 |
| 20260510153904 | 68 | 261 | 2.6 | 5.2 | 0.00 | 0.45 | 0.00 | 70 | 1013.1 |
| 20260510153405 | 68 | 185 | 1.7 | 4.3 | 0.00 | 0.45 | 0.00 | 75 | 1013.2 |
| 20260510152903 | 67 | 236 | 1.7 | 4.3 | 0.00 | 0.45 | 0.00 | 74 | 1013.3 |
| 20260510152404 | 67 | 240 | 1.7 | 5.2 | 0.00 | 0.45 | 0.00 | 74 | 1013.2 |
| 20260510151904 | 66 | 310 | 0.9 | 4.3 | 0.00 | 0.45 | 0.00 | 78 | 1013.2 |
| 20260510151404 | 66 | 62 | 1.7 | 5.2 | 0.00 | 0.45 | 0.00 | 77 | 1013.2 |
| 20260510150904 | 65 | 220 | 2.6 | 5.2 | 0.00 | 0.45 | 0.00 | 78 | 1013.3 |
| 20260510145905 | 64 | 233 | 1.7 | 6.1 | 0.00 | 0.45 | 0.00 | 80 | 1013.4 |
| 20260510145404 | 64 | 185 | 1.7 | 4.3 | 0.00 | 0.45 | 0.00 | 83 | 1013.4 |
| 20260510144904 | 63 | 201 | 1.7 | 5.2 | 0.00 | 0.45 | 0.00 | 84 | 1013.3 |
| 20260510144405 | 63 | 284 | 1.7 | 2.6 | 0.00 | 0.45 | 0.00 | 84 | 1013.3 |
| 20260510143904 | 62 | 242 | 2.6 | 5.2 | 0.00 | 0.45 | 0.00 | 86 | 1013.4 |
| 20260510143404 | 61 | 292 | 0.9 | 2.6 | 0.00 | 0.45 | 0.00 | 87 | 1013.4 |
| 20260510142904 | 61 | 200 | 2.6 | 5.2 | 0.00 | 0.45 | 0.00 | 88 | 1013.3 |
| 20260510142404 | 60 | 249 | 1.7 | 4.3 | 0.00 | 0.45 | 0.00 | 89 | 1013.3 |
| 20260510141904 | 60 | 48 | 0.9 | 2.6 | 0.00 | 0.45 | 0.00 | 91 | 1013.3 |
| 20260510140904 | 59 | 342 | 0.9 | 4.3 | 0.00 | 0.45 | 0.00 | 92 | 1013.4 |
| 20260510140404 | 59 | 315 | 1.7 | 2.6 | 0.00 | 0.45 | 0.00 | 91 | 1013.3 |
| 20260510135904 | 58 | 285 | 0.9 | 1.7 | 0.00 | 0.45 | 0.00 | 94 | 1013.3 |
| 20260510133905 | 56 | 262 | 1.7 | 4.3 | 0.00 | 0.45 | 0.00 | 97 | 1013.3 |
| 20260510133404 | 56 | 340 | 0.9 | 4.3 | 0.00 | 0.45 | 0.00 | 99 | 1013.3 |
| 20260510132904 | 55 | 241 | 0.9 | 1.7 | 0.00 | 0.45 | 0.00 | 100 | 1013.3 |
| 20260510130904 | 54 | 333 | 0.9 | 2.6 | 0.00 | 0.45 | 0.00 | 100 | 1013.3 |
| 20260510130404 | 53 | 315 | 1.7 | 2.6 | 0.00 | 0.45 | 0.00 | 100 | 1013.4 |
| 20260510125904 | 53 | 333 | 0.9 | 1.7 | 0.00 | 0.45 | 0.00 | 100 | 1013.5 |
| 20260510125404 | 53 | 322 | 0.9 | 2.6 | 0.00 | 0.45 | 0.00 | 100 | 1013.4 |
| 20260510124905 | 53 | 171 | 0.9 | 1.7 | 0.00 | 0.45 | 0.00 | 100 | 1013.3 |
| 20260510124404 | 53 | 230 | 0.0 | 1.7 | 0.00 | 0.45 | 0.00 | 100 | 1013.3 |
| 20260510123404 | 52 | 311 | 0.0 | 0.9 | 0.00 | 0.45 | 0.00 | 100 | 1013.2 |
| 20260510122904 | 52 | 81 | 0.0 | 1.7 | 0.00 | 0.45 | 0.00 | 100 | 1013.0 |
| 20260510122403 | 52 | 75 | 0.0 | 1.7 | 0.00 | 0.45 | 0.00 | 100 | 1012.9 |
| 20260510121904 | 52 | 190 | 0.9 | 1.7 | 0.00 | 0.45 | 0.00 | 100 | 1012.9 |
| 20260510121405 | 52 | 183 | 0.9 | 1.7 | 0.00 | 0.45 | 0.00 | 99 | 1012.9 |
| 20260510120904 | 52 | 140 | 0.0 | 0.9 | 0.00 | 0.45 | 0.00 | 99 | 1012.9 |
| 20260510120404 | 52 | 204 | 0.9 | 1.7 | 0.00 | 0.45 | 0.00 | 100 | 1012.7 |
| 20260510115904 | 51 | 26 | 0.0 | 1.7 | 0.00 | 0.45 | 0.00 | 99 | 1012.5 |
| 20260510115404 | 51 | 94 | 0.0 | 1.7 | 0.00 | 0.45 | 0.00 | 99 | 1012.7 |
| 20260510114904 | 51 | 44 | 0.0 | 2.6 | 0.00 | 0.45 | 0.00 | 99 | 1012.7 |
| 20260510114404 | 51 | 58 | 0.9 | 1.7 | 0.00 | 0.45 | 0.00 | 99 | 1012.5 |
| 20260510113404 | 51 | 65 | 0.9 | 4.3 | 0.00 | 0.45 | 0.00 | 99 | 1012.6 |
| 20260510112404 | 51 | 84 | 0.9 | 1.7 | 0.00 | 0.45 | 0.00 | 99 | 1012.5 |
| 20260510111405 | 50 | 55 | 0.0 | 2.6 | 0.00 | 0.45 | 0.00 | 99 | 1012.6 |
| 20260510110904 | 50 | 43 | 0.9 | 1.7 | 0.00 | 0.45 | 0.00 | 99 | 1012.5 |
| 20260510110404 | 50 | 71 | 0.9 | 2.6 | 0.00 | 0.45 | 0.00 | 99 | 1012.4 |
| 20260510105904 | 50 | 59 | 0.9 | 2.6 | 0.00 | 0.45 | 0.00 | 99 | 1012.4 |
| 20260510105405 | 50 | 335 | 0.0 | 2.6 | 0.00 | 0.45 | 0.00 | 99 | 1012.4 |
| 20260510104904 | 50 | 53 | 2.6 | 4.3 | 0.00 | 0.45 | 0.00 | 99 | 1012.3 |
| 20260510104404 | 50 | 58 | 1.7 | 4.3 | 0.00 | 0.45 | 0.00 | 99 | 1012.2 |
| 20260510103903 | 50 | 75 | 1.7 | 4.3 | 0.00 | 0.45 | 0.00 | 99 | 1012.0 |
| 20260510102405 | 50 | 69 | 1.7 | 2.6 | 0.00 | 0.45 | 0.00 | 99 | 1011.9 |
| 20260510101404 | 50 | 67 | 0.9 | 2.6 | 0.00 | 0.45 | 0.00 | 99 | 1012.0 |
| 20260510100903 | 50 | 311 | 0.9 | 2.6 | 0.00 | 0.45 | 0.00 | 99 | 1012.1 |
| 20260510100404 | 50 | 44 | 0.9 | 1.7 | 0.00 | 0.45 | 0.00 | 99 | 1012.0 |
| 20260510095903 | 50 | 327 | 0.0 | 2.6 | 0.00 | 0.45 | 0.00 | 99 | 1011.9 |
| 20260510094903 | 50 | 46 | 0.9 | 2.6 | 0.00 | 0.45 | 0.00 | 99 | 1011.6 |
| 20260510094405 | 50 | 65 | 1.7 | 2.6 | 0.00 | 0.45 | 0.00 | 99 | 1011.8 |
| 20260510093904 | 50 | 66 | 0.9 | 2.6 | 0.00 | 0.45 | 0.00 | 99 | 1011.8 |
| 20260510093404 | 50 | 54 | 0.9 | 2.6 | 0.00 | 0.45 | 0.00 | 99 | 1011.8 |
| 20260510091904 | 50 | 72 | 0.9 | 2.6 | 0.00 | 0.45 | 0.00 | 99 | 1011.7 |
| 20260510090905 | 50 | 58 | 0.9 | 2.6 | 0.00 | 0.45 | 0.00 | 99 | 1011.8 |
| 20260510090404 | 50 | 57 | 0.9 | 2.6 | 0.00 | 0.45 | 0.00 | 99 | 1011.9 |
| 20260510085905 | 50 | 101 | 0.9 | 2.6 | 0.00 | 0.45 | 0.00 | 99 | 1011.8 |
| 20260510084903 | 49 | 223 | 0.9 | 2.6 | 0.00 | 0.45 | 0.00 | 99 | 1011.5 |
| 20260510084405 | 49 | 4 | 1.7 | 2.6 | 0.00 | 0.45 | 0.00 | 99 | 1012.0 |
| 20260510083905 | 49 | 229 | 0.9 | 2.6 | 0.00 | 0.45 | 0.00 | 99 | 1011.8 |
| 20260510083403 | 49 | 353 | 0.9 | 2.6 | 0.00 | 0.45 | 0.00 | 99 | 1011.6 |
| 20260510082904 | 49 | 346 | 2.6 | 5.2 | 0.00 | 0.45 | 0.00 | 99 | 1011.8 |
| 20260510082404 | 49 | 53 | 0.9 | 4.3 | 0.00 | 0.45 | 0.00 | 99 | 1011.7 |
| 20260510081904 | 49 | 7 | 1.7 | 4.3 | 0.00 | 0.45 | 0.00 | 99 | 1011.3 |
| 20260510080904 | 49 | 83 | 0.9 | 2.6 | 0.00 | 0.45 | 0.00 | 99 | 1011.2 |
| 20260510080404 | 49 | 64 | 1.7 | 2.6 | 0.00 | 0.45 | 0.00 | 99 | 1011.2 |
| 20260510075904 | 49 | 70 | 1.7 | 2.6 | 0.00 | 0.45 | 0.00 | 99 | 1011.0 |
| 20260510075404 | 49 | 65 | 0.9 | 1.7 | 0.00 | 0.45 | 0.00 | 99 | 1011.1 |
| 20260510074904 | 49 | 69 | 0.0 | 0.9 | 0.00 | 0.45 | 0.00 | 99 | 1011.1 |
| 20260510074403 | 49 | 59 | 0.0 | 0.9 | 0.00 | 0.45 | 0.00 | 99 | 1011.1 |
| 20260510073904 | 49 | 65 | 0.9 | 1.7 | 0.00 | 0.45 | 0.00 | 99 | 1011.1 |
| 20260510073403 | 49 | 51 | 0.0 | 0.0 | 0.00 | 0.45 | 0.00 | 99 | 1011.0 |
| 20260510072403 | 49 | 150 | 0.0 | 1.7 | 0.00 | 0.45 | 0.00 | 99 | 1011.1 |
| 20260510071904 | 49 | 27 | 0.0 | 0.0 | 0.00 | 0.45 | 0.00 | 99 | 1011.1 |
| 20260510071404 | 49 | 30 | 0.9 | 2.6 | 0.00 | 0.45 | 0.00 | 99 | 1011.2 |
| 20260510070904 | 49 | 294 | 0.9 | 1.7 | 0.00 | 0.45 | 0.00 | 99 | 1011.1 |
| 20260510070404 | 49 | 352 | 0.9 | 2.6 | 0.00 | 0.45 | 0.00 | 99 | 1011.1 |
| 20260510065904 | 49 | 329 | 0.9 | 2.6 | 0.00 | 0.45 | 0.00 | 99 | 1011.0 |
| 20260510065404 | 49 | 31 | 0.9 | 2.6 | 0.00 | 0.45 | 0.00 | 99 | 1011.0 |
| 20260510064906 | 49 | 331 | 0.0 | 2.6 | 0.00 | 0.45 | 0.00 | 99 | 1010.9 |
| 20260510064405 | 49 | 320 | 0.9 | 2.6 | 0.00 | 0.45 | 0.00 | 99 | 1010.8 |
| 20260510063905 | 49 | 64 | 0.9 | 1.7 | 0.00 | 0.45 | 0.00 | 99 | 1010.6 |
| 20260510063406 | 49 | 54 | 0.0 | 0.9 | 0.00 | 0.45 | 0.00 | 99 | 1010.5 |
| 20260510062906 | 49 | 49 | 0.0 | 0.9 | 0.00 | 0.45 | 0.00 | 99 | 1010.5 |
| 20260510062405 | 49 | 67 | 0.0 | 0.9 | 0.00 | 0.45 | 0.00 | 99 | 1010.6 |
| 20260510061905 | 49 | 63 | 0.0 | 0.9 | 0.00 | 0.45 | 0.00 | 99 | 1010.7 |
| 20260510061405 | 49 | 63 | 0.9 | 1.7 | 0.00 | 0.45 | 0.00 | 99 | 1010.7 |
| 20260510060907 | 49 | 64 | 0.9 | 1.7 | 0.00 | 0.45 | 0.00 | 99 | 1010.7 |
| 20260510060407 | 49 | 66 | 0.9 | 1.7 | 0.00 | 0.45 | 0.00 | 99 | 1010.8 |
| 20260510055905 | 49 | 57 | 0.9 | 1.7 | 0.00 | 0.45 | 0.00 | 99 | 1010.9 |
| 20260510054907 | 49 | 64 | 0.9 | 1.7 | 0.00 | 0.45 | 0.00 | 99 | 1010.9 |
| 20260510054405 | 49 | 176 | 0.0 | 0.0 | 0.00 | 0.45 | 0.00 | 99 | 1011.0 |
| 20260510053906 | 49 | 176 | 0.0 | 0.9 | 0.00 | 0.45 | 0.00 | 99 | 1011.0 |
| 20260510053405 | 49 | 160 | 0.0 | 0.9 | 0.00 | 0.45 | 0.00 | 99 | 1011.0 |
| 20260510052405 | 49 | 51 | 0.0 | 0.0 | 0.00 | 0.45 | 0.00 | 99 | 1011.0 |
| 20260510050906 | 49 | 51 | 0.0 | 0.9 | 0.00 | 0.45 | 0.00 | 99 | 1011.1 |
| 20260510050405 | 49 | 51 | 0.0 | 0.9 | 0.00 | 0.45 | 0.00 | 99 | 1011.1 |
| 20260510045905 | 49 | 56 | 0.0 | 0.9 | 0.19 | 0.45 | 0.00 | 99 | 1011.2 |
| 20260510045405 | 49 | 57 | 0.0 | 0.9 | 0.19 | 0.45 | 0.00 | 99 | 1011.2 |
| 20260510044905 | 49 | 59 | 0.9 | 1.7 | 0.19 | 0.45 | 0.00 | 99 | 1011.2 |
| 20260510044405 | 49 | 69 | 0.0 | 0.9 | 0.19 | 0.45 | 0.00 | 99 | 1011.2 |
| 20260510043905 | 49 | 70 | 0.0 | 0.9 | 0.19 | 0.45 | 0.00 | 99 | 1011.3 |
| 20260510043406 | 49 | 67 | 0.9 | 1.7 | 0.19 | 0.45 | 0.00 | 99 | 1011.3 |
| 20260510042904 | 49 | 66 | 0.9 | 1.7 | 0.19 | 0.45 | 0.00 | 99 | 1011.3 |
| 20260510042405 | 49 | 69 | 0.0 | 0.9 | 0.19 | 0.45 | 0.00 | 99 | 1011.3 |
| 20260510041905 | 49 | 65 | 0.0 | 0.9 | 0.19 | 0.45 | 0.00 | 99 | 1011.4 |
| 20260510041406 | 49 | 170 | 0.0 | 0.0 | 0.19 | 0.45 | 0.00 | 99 | 1011.4 |
| 20260510040405 | 49 | 170 | 0.0 | 0.9 | 0.19 | 0.45 | 0.00 | 99 | 1011.4 |
| 20260510035405 | 49 | 196 | 0.0 | 0.9 | 0.00 | 0.27 | 0.19 | 99 | 1011.3 |
| 20260510034905 | 49 | 209 | 0.0 | 0.9 | 0.00 | 0.27 | 0.19 | 99 | 1011.3 |
| 20260510034405 | 49 | 279 | 0.0 | 0.0 | 0.00 | 0.27 | 0.19 | 99 | 1011.3 |
| 20260510033905 | 49 | 279 | 0.0 | 0.0 | 0.00 | 0.27 | 0.19 | 99 | 1011.2 |
| 20260510033405 | 49 | 279 | 0.0 | 0.9 | 0.00 | 0.27 | 0.19 | 99 | 1011.2 |
| 20260510032908 | 49 | 65 | 0.0 | 0.0 | 0.00 | 0.27 | 0.19 | 99 | 1011.2 |
| 20260510032404 | 49 | 65 | 0.0 | 0.0 | 0.00 | 0.27 | 0.19 | 99 | 1011.1 |
| 20260510031905 | 49 | 65 | 0.0 | 0.0 | 0.00 | 0.27 | 0.19 | 99 | 1011.1 |
| 20260510031406 | 50 | 65 | 0.0 | 0.0 | 0.00 | 0.27 | 0.19 | 99 | 1011.0 |
| 20260510030906 | 50 | 65 | 0.0 | 0.9 | 0.00 | 0.27 | 0.19 | 99 | 1010.9 |
| 20260510030404 | 50 | 67 | 0.0 | 0.9 | 0.00 | 0.27 | 0.19 | 99 | 1010.9 |
| 20260510025905 | 49 | 68 | 0.0 | 0.9 | 0.00 | 0.27 | 0.19 | 99 | 1010.9 |
| 20260510025406 | 49 | 199 | 0.0 | 0.0 | 0.00 | 0.27 | 0.19 | 99 | 1011.0 |
| 20260510024906 | 49 | 199 | 0.0 | 0.0 | 0.00 | 0.27 | 0.19 | 99 | 1011.0 |
| 20260510024405 | 49 | 199 | 0.0 | 0.0 | 0.00 | 0.27 | 0.19 | 99 | 1011.0 |
| 20260510023907 | 50 | 199 | 0.0 | 0.0 | 0.00 | 0.27 | 0.19 | 99 | 1010.9 |
| 20260510023406 | 50 | 199 | 0.0 | 0.9 | 0.00 | 0.27 | 0.19 | 99 | 1010.8 |
| 20260510022905 | 50 | 170 | 0.0 | 0.0 | 0.00 | 0.27 | 0.19 | 99 | 1010.8 |
| 20260510022406 | 50 | 170 | 0.0 | 0.0 | 0.00 | 0.27 | 0.19 | 99 | 1010.9 |
| 20260510021905 | 50 | 170 | 0.0 | 0.0 | 0.00 | 0.27 | 0.19 | 99 | 1010.9 |
| 20260510021405 | 50 | 170 | 0.0 | 0.0 | 0.00 | 0.27 | 0.19 | 99 | 1010.8 |
| 20260510020905 | 50 | 170 | 0.0 | 0.0 | 0.00 | 0.27 | 0.19 | 99 | 1010.8 |
| 20260510020405 | 50 | 170 | 0.0 | 0.0 | 0.00 | 0.27 | 0.19 | 99 | 1010.8 |
| 20260510015905 | 50 | 170 | 0.0 | 0.0 | 0.00 | 0.27 | 0.19 | 99 | 1010.8 |
| 20260510015405 | 51 | 170 | 0.0 | 0.0 | 0.00 | 0.27 | 0.19 | 99 | 1010.8 |
| 20260510014904 | 51 | 170 | 0.0 | 0.0 | 0.00 | 0.27 | 0.19 | 99 | 1010.8 |
| 20260510014405 | 51 | 170 | 0.0 | 0.0 | 0.00 | 0.27 | 0.19 | 99 | 1010.8 |
| 20260510013905 | 51 | 170 | 0.0 | 0.0 | 0.00 | 0.27 | 0.19 | 99 | 1010.8 |
| 20260510013405 | 51 | 170 | 0.0 | 0.0 | 0.00 | 0.27 | 0.19 | 99 | 1010.8 |
| 20260510012905 | 51 | 170 | 0.0 | 0.0 | 0.00 | 0.27 | 0.19 | 99 | 1010.8 |
| 20260510012404 | 51 | 170 | 0.0 | 0.0 | 0.00 | 0.27 | 0.19 | 99 | 1010.8 |
| 20260510011905 | 51 | 170 | 0.0 | 0.9 | 0.00 | 0.27 | 0.19 | 99 | 1010.8 |
| 20260510011405 | 52 | 186 | 0.0 | 0.0 | 0.00 | 0.27 | 0.19 | 99 | 1010.8 |
| 20260510010905 | 52 | 181 | 0.0 | 0.0 | 0.00 | 0.27 | 0.19 | 99 | 1010.7 |
| 20260510010405 | 52 | 166 | 0.0 | 0.9 | 0.00 | 0.27 | 0.19 | 99 | 1010.6 |
| 20260510005906 | 52 | 59 | 0.0 | 0.0 | 0.00 | 0.27 | 0.19 | 99 | 1010.6 |
| 20260510004906 | 52 | 185 | 0.0 | 0.0 | 0.00 | 0.27 | 0.19 | 99 | 1010.5 |
| 20260510004408 | 53 | 185 | 0.0 | 0.9 | 0.00 | 0.27 | 0.19 | 99 | 1010.4 |
| 20260510003904 | 53 | 167 | 0.0 | 0.0 | 0.00 | 0.27 | 0.19 | 99 | 1010.4 |
| 20260510003405 | 53 | 167 | 0.0 | 0.0 | 0.00 | 0.27 | 0.19 | 100 | 1010.3 |
| 20260510002404 | 53 | 201 | 0.0 | 0.0 | 0.00 | 0.27 | 0.19 | 100 | 1010.3 |
| 20260510001905 | 54 | 178 | 0.0 | 0.9 | 0.00 | 0.27 | 0.19 | 99 | 1010.3 |
| 20260510001404 | 54 | 195 | 0.0 | 1.7 | 0.00 | 0.27 | 0.19 | 99 | 1010.2 |
| 20260510000905 | 54 | 187 | 0.0 | 0.0 | 0.00 | 0.27 | 0.19 | 98 | 1010.3 |
| 20260510000404 | 55 | 187 | 0.0 | 0.0 | 0.00 | 0.27 | 0.19 | 98 | 1010.2 |
| 20260509235905 | 55 | 187 | 0.0 | 1.7 | 0.00 | 0.27 | 0.19 | 98 | 1010.2 |
| 20260509235404 | 55 | 173 | 0.0 | 0.9 | 0.00 | 0.27 | 0.19 | 96 | 1010.3 |
| 20260509234404 | 56 | 315 | 0.9 | 1.7 | 0.00 | 0.27 | 0.19 | 95 | 1010.4 |
| 20260509233905 | 56 | 72 | 0.0 | 0.0 | 0.00 | 0.27 | 0.19 | 94 | 1010.3 |
| 20260509233404 | 56 | 42 | 0.0 | 1.7 | 0.00 | 0.27 | 0.19 | 94 | 1010.3 |
| 20260509232905 | 56 | 64 | 0.9 | 1.7 | 0.00 | 0.27 | 0.19 | 93 | 1010.2 |
| 20260509232405 | 57 | 56 | 0.9 | 1.7 | 0.00 | 0.27 | 0.19 | 92 | 1010.3 |
| 20260509231905 | 57 | 61 | 0.9 | 1.7 | 0.00 | 0.27 | 0.19 | 92 | 1010.2 |
| 20260509231405 | 58 | 50 | 0.0 | 0.9 | 0.00 | 0.27 | 0.19 | 90 | 1010.2 |
| 20260509230905 | 58 | 3 | 0.0 | 1.7 | 0.00 | 0.27 | 0.19 | 89 | 1010.2 |
| 20260509230405 | 58 | 47 | 0.0 | 0.0 | 0.00 | 0.27 | 0.19 | 89 | 1010.2 |
| 20260509225905 | 58 | 81 | 0.9 | 1.7 | 0.00 | 0.27 | 0.19 | 88 | 1010.2 |
| 20260509225405 | 58 | 153 | 0.0 | 0.9 | 0.00 | 0.27 | 0.19 | 89 | 1010.2 |
| 20260509224904 | 57 | 333 | 0.0 | 1.7 | 0.00 | 0.27 | 0.19 | 92 | 1010.2 |
| 20260509224405 | 56 | 137 | 1.7 | 4.3 | 0.00 | 0.27 | 0.19 | 92 | 1010.3 |
| 20260509223905 | 56 | 62 | 1.7 | 4.3 | 0.00 | 0.27 | 0.19 | 93 | 1010.2 |
| 20260509223404 | 56 | 43 | 0.0 | 0.9 | 0.00 | 0.27 | 0.19 | 94 | 1010.1 |
| 20260509222906 | 56 | 50 | 0.9 | 2.6 | 0.00 | 0.27 | 0.19 | 95 | 1010.1 |
| 20260509222405 | 56 | 232 | 0.9 | 2.6 | 0.07 | 0.27 | 0.19 | 95 | 1010.1 |
| 20260509221905 | 56 | 53 | 0.9 | 1.7 | 0.07 | 0.27 | 0.19 | 95 | 1010.1 |
| 20260509221404 | 56 | 116 | 0.0 | 1.7 | 0.07 | 0.27 | 0.19 | 95 | 1010.1 |